Methuen, Massachusetts, United States (01844)
Lat: 42.73N, Lon: 71.19W
Wx Zone: MAZ006
Local Info
Past Weather Observations for Thursday, May 21, 2015

NOTE: This archive is for the closest National Weather Service station to Methuen. Information may differ from the station used for current weather conditions.

Click here for Long-term Archive

Time Weather Temperature Dewpoint Humidity Pressure Winds Precip Visibility
23:54
Overcast
55°F / 13°C 37°F / 3°C 51% 29.83 in
(1010 mb)
SW 10.4 mph
(SW 17 kph)
- 10SM
22:54
Mostly Cloudy
57°F / 14°C 37°F / 3°C 48% 29.86 in
(1011 mb)
SW 5.8 mph
(SW 9 kph)
- 10SM
21:54
Overcast
59°F / 15°C 39°F / 4°C 48% 29.89 in
(1012 mb)
SW 10.4 mph
(SW 17 kph)
- 10SM
20:54
Overcast
61°F / 16°C 39°F / 4°C 45% 29.89 in
(1012 mb)
Variable 5.8 mph
(Variable 9 kph)
- 10SM
19:54
Overcast
61°F / 16°C 36°F / 2°C 39% 29.89 in
(1012 mb)
Variable 4.6 mph
(Variable 7 kph)
- 10SM
18:54
Mostly Cloudy
63°F / 17°C 34°F / 1°C 34% 29.86 in
(1011 mb)
SW 8.1 mph
(SW 13 kph)
- 10SM
17:54
Mostly Cloudy
64°F / 18°C 34°F / 1°C 32% 29.86 in
(1011 mb)
SSW 9.2 mph
(SSW 15 kph)
- 10SM
16:54
Overcast
66°F / 19°C 28°F / -2°C 24% 29.86 in
(1011 mb)
SSW 10.4 mph
(SSW 17 kph)
- 10SM
15:54
Overcast
66°F / 19°C 34°F / 1°C 30% 29.89 in
(1012 mb)
S 8.1 mph
(S 13 kph)
- 10SM
14:54
Mostly Cloudy
66°F / 19°C 32°F / 0°C 28% 29.89 in
(1012 mb)
SW 6.9 mph
(SW 11 kph)
- 10SM
13:54
Partly Cloudy
66°F / 19°C 30°F / -1°C 26% 29.89 in
(1012 mb)
SSE 13.8 mph
(SSE 22 kph)
- 10SM
12:54
Clear
68°F / 20°C 30°F / -1°C 24% 29.92 in
(1013 mb)
SW 11.5 mph
(SW 19 kph)
- 10SM
11:54
Clear
64°F / 18°C 30°F / -1°C 28% 29.92 in
(1013 mb)
SW 12.7 mph
(SW 20 kph)
- 10SM
10:54
Clear
64°F / 18°C 30°F / -1°C 28% 29.95 in
(1014 mb)
SSW 6.9 mph
(SSW 11 kph)
- 10SM
09:54
Clear
61°F / 16°C 28°F / -2°C 29% 29.98 in
(1015 mb)
S 6.9 mph
(S 11 kph)
- 10SM
08:54
Clear
61°F / 16°C 34°F / 1°C 36% 29.98 in
(1015 mb)
Variable 3.5 mph
(Variable 6 kph)
- 10SM
07:54
Clear
55°F / 13°C 36°F / 2°C 47% 29.98 in
(1015 mb)
Calm - 10SM
06:54
Clear
52°F / 11°C 36°F / 2°C 54% 29.98 in
(1015 mb)
W 6.9 mph
(W 11 kph)
- 10SM
05:54
Clear
46°F / 8°C 37°F / 3°C 71% 29.98 in
(1015 mb)
SSE 4.6 mph
(SSE 7 kph)
- 10SM
04:54
Clear
41°F / 5°C 36°F / 2°C 81% 29.98 in
(1015 mb)
S 4.6 mph
(S 7 kph)
- 10SM
03:54
Clear
43°F / 6°C 36°F / 2°C 76% 29.95 in
(1014 mb)
SW 3.5 mph
(SW 6 kph)
- 10SM
02:54
Clear
43°F / 6°C 36°F / 2°C 76% 29.95 in
(1014 mb)
SW 3.5 mph
(SW 6 kph)
- 10SM
01:54
Clear
45°F / 7°C 34°F / 1°C 66% 29.92 in
(1013 mb)
W 6.9 mph
(W 11 kph)
- 10SM
00:54
Clear
46°F / 8°C 36°F / 2°C 66% 29.95 in
(1014 mb)
Variable 3.5 mph
(Variable 6 kph)
- 10SM
Time Weather Temperature Dewpoint Humidity Pressure Winds Precip Visibility


Weather for websites

WeatherForYou.com, LLC is not responsible for any damages or problems caused by this service. Current weather conditions are obtained from the closest station including government and personal stations which may have varying degrees of accuracy. Weather forecasts are derived from the NOAA NDFD. Like all things, this site belongs to Jesus Christ... He just trusts us to maintain it. If you have any questions or comments email webmaster@weatherforyou.com

Copyright © 2015, WeatherForYou.com LLC. All rights reserved.